This demonstration page uses our WeatherBlox Daily Observations layout. Learn more.

Left ArrowRight Arrow

39.51506, -84.39828

Hourly Observations for March 20, 2016

Temp ( °F °C ) Dew Point ( °F °C ) Humidity (%) Winds ( mph kmh ) Pressure ( in mb ) Visibility ( mi km ) Precip ( " mm )
12:15 am 00:15 Cloudy 37 2.6 22 -5.4 56 56 NE 8 13 30.18 1022 10 16 0.00 0.00
12:35 am 00:35 Cloudy 37 2.6 22 -5.4 56 56 NNE 9 15 30.18 1022 10 16 0.00 0.00
1:15 am 01:15 Mostly Cloudy 34 1.2 20 -6.9 55 55 Calm 30.18 1022 10 16 0.00 0.00
1:35 am 01:35 Partly Cloudy 34 1.2 19 -7 55 55 Calm 30.18 1022 10 16 0.00 0.00
1:55 am 01:55 Clear 34 1.2 19 -7.4 53 53 Calm 30.18 1022 10 16 0.00 0.00
2:15 am 02:15 Clear 34 1.2 20 -6.5 57 57 NNW 3 6 30.18 1022 10 16 0.00 0.00
2:55 am 02:55 Clear 32 0 21 -6.2 63 63 NNW 3 6 30.18 1022 10 16 0.00 0.00
3:15 am 03:15 Clear 32 0 21 -6.2 63 63 NNW 3 6 30.18 1022 10 16 0.00 0.00
3:35 am 03:35 Clear 31 -0.7 20 -6.5 65 65 N 5 7 30.15 1021 10 16 0.00 0.00
3:55 am 03:55 Clear 31 -0.7 21 -6 68 68 N 3 6 30.15 1021 10 16 0.00 0.00
4:15 am 04:15 Clear 31 -0.7 21 -6 68 68 N 3 6 30.15 1021 10 16 0.00 0.00
4:35 am 04:35 Clear 31 -0.7 21 -6 68 68 N 3 6 30.15 1021 10 16 0.00 0.00
5:15 am 05:15 Clear 30 -0.9 21 -6 69 69 N 5 7 30.15 1021 10 16 0.00 0.00
5:35 am 05:35 Clear 29 -1.5 21 -6.2 71 71 Calm 30.15 1021 10 16 0.00 0.00
5:55 am 05:55 Clear 29 -1.5 21 -5.9 72 72 Calm 30.15 1021 10 16 0.00 0.00
6:15 am 06:15 Clear 29 -1.5 22 -5.8 73 73 Calm 30.15 1021 10 16 0.00 0.00
6:35 am 06:35 Clear 29 -1.5 22 -5.7 73 73 Calm 30.15 1021 10 16 0.00 0.00
6:55 am 06:55 Clear 29 -1.5 22 -5.5 74 74 N 5 7 30.15 1021 10 16 0.00 0.00
7:15 am 07:15 Clear 29 -1.5 22 -5.3 76 76 Calm 30.15 1021 10 16 0.00 0.00
7:35 am 07:35 Clear 29 -1.5 23 -5.1 77 77 N 5 7 30.15 1021 10 16 0.00 0.00
7:55 am 07:55 Sunny 29 -1.5 23 -5 77 77 NNE 5 7 30.15 1021 10 16 0.00 0.00
8:15 am 08:15 Sunny 29 -1.5 24 -4.7 79 79 N 5 7 30.15 1021 10 16 0.00 0.00
8:35 am 08:35 Sunny 30 -1.1 24 -4.5 78 78 NNE 5 7 30.15 1021 10 16 0.00 0.00
8:55 am 08:55 Sunny 32 0.2 26 -3.5 76 76 NNE 6 9 30.15 1021 10 16 0.00 0.00
9:15 am 09:15 Sunny 34 1.2 27 -2.8 75 75 NNE 8 13 30.15 1021 10 16 0.00 0.00
9:35 am 09:35 Sunny 34 1.2 26 -3.2 73 73 NNE 10 17 30.15 1021 10 16 0.00 0.00
10:15 am 10:15 Sunny 37 2.6 27 -2.7 68 68 NNE 9 15 30.15 1021 10 16 0.00 0.00
10:35 am 10:35 Sunny 37 2.6 26 -3.3 65 65 N 8 13 30.15 1021 10 16 0.00 0.00
10:55 am 10:55 Partly Cloudy 37 2.6 26 -3.3 65 65 NNE 5 7 30.15 1021 10 16 0.00 0.00
11:15 am 11:15 Partly Cloudy 39 3.8 26 -3.6 59 59 NNE 5 7 30.15 1021 10 16 0.00 0.00
11:35 am 11:35 Partly Cloudy 39 4 24 -4.6 54 54 NNE 9 15 30.15 1021 10 16 0.00 0.00
12:15 pm 12:15 Partly Cloudy 41 4.9 22 -5.7 47 47 NNE 8 13 30.09 1019 10 16 0.00 0.00
12:35 pm 12:35 Partly Cloudy 41 5.2 20 -6.8 42 42 N 9 15 30.09 1019 10 16 0.00 0.00
12:55 pm 12:55 Sunny 42 5.5 18 -7.6 39 39 NNE 7 11 30.09 1019 10 16 0.00 0.00
1:15 pm 13:15 Sunny 42 5.6 19 -7.3 39 39 NNE 6 9 30.09 1019 10 16 0.00 0.00
1:35 pm 13:35 Sunny 43 6.1 17 -8.1 36 36 NNE 5 7 30.09 1019 10 16 0.00 0.00
2:35 pm 14:35 Partly Cloudy 45 7 18 -7.8 34 34 NNE 6 9 30.06 1018 10 16 0.00 0.00
2:55 pm 14:55 Partly Cloudy 45 7.4 17 -8.5 32 32 NW 6 9 30.06 1018 10 16 0.00 0.00
3:15 pm 15:15 Partly Cloudy 44 6.5 16 -8.9 33 33 NNW 9 15 30.06 1018 10 16 0.00 0.00
3:35 pm 15:35 Partly Cloudy 44 6.8 17 -8.2 34 34 NNW 8 13 30.06 1018 10 16 0.00 0.00
4:15 pm 16:15 Partly Cloudy 44 6.9 17 -8.6 32 32 N 12 19 30.06 1018 10 16 0.00 0.00
4:35 pm 16:35 Sunny 44 6.8 17 -8.6 33 33 N 10 17 30.06 1018 10 16 0.00 0.00
4:55 pm 16:55 Sunny 44 6.4 16 -8.9 33 33 NNW 14 22 30.06 1018 10 16 0.00 0.00
5:15 pm 17:15 Sunny 43 6.3 15 -9.3 32 32 NNW 8 13 30.06 1018 10 16 0.00 0.00
5:35 pm 17:35 Sunny 43 6.2 12 -11 28 28 NNW 10 17 30.06 1018 10 16 0.00 0.00
5:55 pm 17:55 Sunny 43 6.3 14 -10.1 30 30 NNW 6 9 30.06 1018 10 16 0.00 0.00
6:15 pm 18:15 Sunny 43 6.3 12 -11.2 28 28 NW 12 19 30.06 1018 10 16 0.00 0.00
6:35 pm 18:35 Sunny 43 6.1 11 -11.7 27 27 NW 8 13 30.06 1018 10 16 0.00 0.00
6:55 pm 18:55 Partly Cloudy 43 6.2 13 -10.7 29 29 NW 7 11 30.09 1019 10 16 0.00 0.00
7:15 pm 19:15 Partly Cloudy 43 6.1 13 -10.7 29 29 NNW 8 13 30.09 1019 10 16 0.00 0.00
7:35 pm 19:35 Partly Cloudy 43 6 14 -9.8 31 31 NW 6 9 30.09 1019 10 16 0.00 0.00
7:55 pm 19:55 Partly Cloudy 41 4.9 16 -9.1 36 36 NW 5 7 30.09 1019 10 16 0.00 0.00
8:15 pm 20:15 Clear 40 4.7 15 -9.4 36 36 WNW 5 7 30.09 1019 10 16 0.00 0.00
8:35 pm 20:35 Clear 40 4.7 14 -9.8 34 34 WNW 3 6 30.09 1019 10 16 0.00 0.00
8:55 pm 20:55 Clear 39 4.1 19 -7.1 44 44 WNW 3 6 30.12 1020 10 16 0.00 0.00
9:15 pm 21:15 Clear 38 3.6 22 -5.3 53 53 Calm 30.15 1021 10 16 0.00 0.00
9:35 pm 21:35 Clear 37 2.6 23 -5.2 57 57 Calm 30.15 1021 10 16 0.00 0.00
9:55 pm 21:55 Clear 36 2 25 -4.1 64 64 Calm 30.15 1021 10 16 0.00 0.00
10:15 pm 22:15 Clear 34 1.2 25 -3.9 69 69 Calm 30.15 1021 10 16 0.00 0.00
10:35 pm 22:35 Clear 34 1.2 23 -5.1 63 63 WNW 5 7 30.15 1021 10 16 0.00 0.00
10:55 pm 22:55 Clear 34 1.2 26 -3.2 73 73 W 6 9 30.15 1021 10 16 0.00 0.00
11:15 pm 23:15 Clear 34 1.2 24 -4.7 65 65 WNW 6 9 30.15 1021 10 16 0.00 0.00
11:35 pm 23:35 Clear 37 2.9 22 -5.6 54 54 NW 8 13 30.15 1021 10 16 0.00 0.00
11:55 pm 23:55 Clear 39 4 22 -5.5 50 50 NW 10 17 30.15 1021 10 16 0.00 0.00

Powered by AerisWeather